[[{"header":{"parameterUnit":"m.s-1","parameterCategory":1,"la1":30.2991,"la2":30.254,"lo1":-89.0895,"lo2":-89.0444,"dy":0.0017,"dx":0.0017,"nx":28,"ny":28,"refTime":"2024-05-21T09:00:00:Z","depth":0,"parameterNumber":2,"parameterNumberName":"U-component_of_WINDS"},"data":[0,0,0,0,0,0,0,0,0,0,0,0,0,0,0,0,0,0,0,0,0,0,0,0,0,0,0,0,0,0,0,0,0,0,0,0,0,0,0,0,0,0,0,0,0,0,0,0,0,0,0,0,0,0,0,0,0,0,-5.2652,-5.2652,0,-5.2657,-5.2657,-5.2657,-5.2558,-5.2555,-5.2553,-5.255,-5.2554,-5.2557,-5.2559,0,0,0,0,0,0,0,0,0,0,0,0,0,-5.2555,-5.2557,-5.2652,-5.2652,-5.2652,-5.2657,-5.2657,-5.2657,-5.2559,-5.2555,-5.2552,-5.2549,-5.2553,-5.2556,-5.2559,0,0,0,0,0,0,0,0,0,0,0,0,0,-5.2582,-5.2558,-5.2652,-5.2603,-5.2599,-5.2657,-5.2657,-5.2657,-5.2559,-5.2555,-5.2551,-5.2547,-5.2552,-5.2556,-5.256,-5.2664,0,0,-5.2572,-5.2573,0,0,0,0,0,0,0,0,-5.2581,-5.2586,-5.261,-5.2607,-5.2602,-5.2603,-5.2624,-5.266,-5.256,-5.2574,-5.255,-5.2546,-5.2573,-5.2575,-5.2585,-5.2664,-5.2664,-5.2572,-5.2574,-5.2576,-5.2577,0,0,0,0,0,0,0,-5.2579,-5.2585,-5.2654,-5.2611,-5.2606,-5.2581,-5.2581,-5.2631,-5.2596,-5.2573,-5.2566,-5.2568,-5.257,-5.2582,-5.2584,-5.2665,-5.2572,-5.2575,-5.2578,-5.2579,-5.283,-5.2834,0,0,0,0,0,0,-5.2584,-5.2584,-5.2653,-5.2654,-5.2581,-5.2586,-5.2585,-5.2607,-5.2595,-5.259,-5.2571,-5.2563,-5.2577,-5.258,-5.2584,-5.2705,-5.2576,-5.258,-5.2582,-5.2826,-5.2831,-5.2836,0,0,0,0,0,0,-5.2582,-5.2591,-5.2653,-5.2617,-5.2623,-5.2592,-5.2617,-5.2609,-5.262,-5.2594,-5.2587,-5.2589,-5.2574,-5.2579,-5.2645,-5.2704,-5.2581,-5.2585,-5.2821,-5.2828,-5.2834,-5.2948,0,0,0,0,0,0,-5.258,-5.2591,-5.263,-5.2619,-5.2626,-5.2714,-5.262,-5.2612,-5.2627,-5.2617,-5.2609,-5.2604,-5.2571,-5.264,-5.2649,-5.2707,-5.2588,-5.2815,-5.2824,-5.2832,-5.2938,-5.2957,-5.2973,0,0,0,0,0,-5.2577,-5.2661,-5.2633,-5.2641,-5.2674,-5.2718,-5.2722,-5.2683,-5.2632,-5.2671,-5.2655,-5.2604,-5.2697,-5.2648,-5.2657,-5.2717,-5.2811,-5.2821,-5.2831,-5.2931,-5.2954,-5.2973,0,0,0,0,0,0,-5.2678,-5.2659,-5.2627,-5.271,-5.2717,-5.2701,-5.2748,-5.2708,-5.2728,-5.2717,-5.2668,-5.2667,-5.2742,-5.2736,-5.2682,-5.2818,-5.2745,-5.2757,-5.2818,-5.2839,-5.2856,-5.2855,-5.2591,0,0,0,0,0,-5.2711,-5.2749,-5.273,-5.2805,-5.2811,-5.278,-5.2797,-5.2767,-5.2772,-5.2773,-5.2762,-5.2768,-5.2798,-5.2819,-5.2846,-5.2939,-5.2935,-5.2985,-5.3002,-5.3017,-5.3027,-5.3075,-5.3097,-5.2868,-5.2868,-5.2868,0,0,-5.2778,-5.2772,-5.2798,-5.2826,-5.2827,-5.2867,-5.2782,-5.2828,-5.2857,-5.278,-5.2842,-5.2835,-5.2838,-5.2918,-5.2953,-5.2916,-5.309,-5.3029,-5.3041,-5.3043,-5.3087,-5.3109,-5.3128,-5.2875,-5.2873,-5.2872,0,0,-5.2919,-5.2919,-5.2982,-5.2986,-5.299,-5.297,-5.2985,-5.2977,-5.2969,-5.3031,-5.2974,-5.3009,-5.3062,-5.3067,-5.3076,-5.3224,-5.3178,-5.3235,-5.3324,-5.3372,-5.339,-5.3406,-5.3457,-5.3476,-5.3245,-5.3246,-5.3246,0,-5.3,-5.3059,-5.3019,-5.3069,-5.3083,-5.3018,-5.3081,-5.3087,-5.3099,-5.311,-5.3069,-5.3136,-5.3134,-5.3214,-5.325,-5.3261,-5.3276,-5.3233,-5.3391,-5.3406,-5.342,-5.3468,-5.3488,-5.3252,-5.3252,-5.3251,-5.325,0,-5.3159,-5.3201,-5.3251,-5.3266,-5.3286,-5.3342,-5.3311,-5.3336,-5.3306,-5.329,-5.3355,-5.335,-5.3375,-5.3393,-5.3363,-5.347,-5.3446,-5.34,-5.3325,-5.3449,-5.3494,-5.3512,-5.3262,-5.326,-5.3258,-5.3256,0,0,-5.3359,-5.3355,-5.3373,-5.338,-5.3382,-5.3413,-5.3468,-5.3493,-5.3515,-5.3527,-5.3571,-5.3619,-5.3576,-5.3588,-5.3558,-5.3601,-5.3717,-5.3549,-5.3548,-5.3578,-5.3833,-5.3867,-5.3889,-5.3689,-5.3692,-5.3695,-5.3832,0,-5.3495,-5.3587,-5.3555,-5.3649,-5.3686,-5.3628,-5.3675,-5.3681,-5.3669,-5.37,-5.3686,-5.3721,-5.3662,-5.3669,-5.3709,-5.3695,-5.3767,-5.3685,-5.3727,-5.3729,-5.3724,-5.3912,-5.3947,-5.4077,-5.385,-5.3853,-5.3855,0,-5.3664,-5.3684,-5.3783,-5.378,-5.3794,-5.3837,-5.3859,-5.3889,-5.3896,-5.3884,-5.3899,-5.3861,-5.3914,-5.3844,-5.3916,-5.386,-5.3877,-5.3873,-5.3877,-5.3876,-5.3797,-5.3914,-5.4117,-5.4136,-5.3882,-5.388,-5.3878,0,-5.3798,-5.3851,-5.3916,-5.3924,-5.3922,-5.3954,-5.3955,-5.3958,-5.3976,-5.3995,-5.4006,-5.4032,-5.4045,-5.4066,-5.4036,-5.3987,-5.4112,-5.4039,-5.4103,-5.4104,-5.4128,-5.4126,-5.4334,-5.4145,-5.4144,-5.4144,-5.4143,0,-5.3951,-5.4012,-5.3976,-5.4016,-5.4084,-5.4048,-5.4116,-5.411,-5.4114,-5.4152,-5.4104,-5.414,-5.41,-5.4133,-5.4111,-5.4174,-5.4181,-5.4172,-5.4165,-5.4174,-5.4175,-5.4181,-5.417,-5.4149,-5.4148,-5.4147,-5.4146,0,-5.4109,-5.4088,-5.4155,-5.415,-5.415,-5.4201,-5.4195,-5.4232,-5.4219,-5.4267,-5.4276,-5.4254,-5.4291,-5.4265,-5.4301,-5.4286,-5.4368,-5.435,-5.4366,-5.4359,-5.4424,-5.4417,-5.464,-5.4667,-5.4463,-5.4465,-5.4467,0,-5.4206,-5.4253,-5.4254,-5.4276,-5.428,-5.4317,-5.4336,-5.4303,-5.4325,-5.4338,-5.4373,-5.4406,-5.443,-5.4491,-5.4478,-5.4506,-5.4486,-5.4562,-5.4489,-5.4498,-5.4484,-5.448,-5.4484,-5.4575,-5.4578,-5.458,-5.4582,0,-5.438,-5.4369,-5.4398,-5.4425,-5.4449,-5.4468,-5.4483,-5.4505,-5.4472,-5.4499,-5.4536,-5.4555,-5.4593,-5.4626,-5.465,-5.465,-5.461,-5.4606,-5.4621,-5.463,-5.4636,-5.4632,-5.4403,-5.4599,-5.4598,-5.4596,-5.4595,-5.4595,-5.4509,-5.4548,-5.4555,-5.459,-5.4599,-5.4615,-5.4649,-5.4642,-5.4673,-5.4701,-5.4681,-5.4725,-5.4733,-5.476,-5.4766,-5.48,-5.4769,-5.4792,-5.4797,-5.4803,-5.4811,-5.4635,-5.4805,-5.4804,-5.4804,-5.4803,-5.4803,0,-5.4679,-5.4681,-5.4714,-5.4738,-5.4766,-5.473,-5.4745,-5.477,-5.4811,-5.4822,-5.4847,-5.4891,-5.4924,-5.4915,-5.4944,-5.4973,-5.4956,-5.4982,-5.4977,-5.4978,-5.4838,-5.4821,-5.4995,-5.4995,-5.4995,-5.4995,-5.4995,-5.4995,-5.477,-5.4833,-5.4823,-5.4891,-5.4893,-5.4937,-5.4949,-5.4964,-5.4973,-5.5024,-5.5052,-5.5047,-5.505,-5.5079,-5.5108,-5.5104,-5.5116,-5.5148,-5.5138,-5.5007,-5.4988,-5.4969,-5.4952,-5.5152,-5.5152,-5.5274,-5.5275,-5.5276]},{"header":{"parameterUnit":"m.s-1","parameterCategory":1,"la1":30.2991,"la2":30.254,"lo1":-89.0895,"lo2":-89.0444,"dy":0.0017,"dx":0.0017,"nx":28,"ny":28,"refTime":"2024-05-21T09:00:00:Z","depth":0,"parameterNumber":3,"parameterNumberName":"V-component_of_WINDS"},"data":[0,0,0,0,0,0,0,0,0,0,0,0,0,0,0,0,0,0,0,0,0,0,0,0,0,0,0,0,0,0,0,0,0,0,0,0,0,0,0,0,0,0,0,0,0,0,0,0,0,0,0,0,0,0,0,0,0,0,3.198,3.198,0,3.1964,3.1964,3.1964,3.1999,3.2,3.2001,3.2002,3.1977,3.1976,3.1974,0,0,0,0,0,0,0,0,0,0,0,0,0,3.2035,3.2034,3.198,3.198,3.198,3.1964,3.1964,3.1964,3.1999,3.2,3.2001,3.2003,3.1978,3.1976,3.1974,0,0,0,0,0,0,0,0,0,0,0,0,0,3.2014,3.2034,3.198,3.1996,3.1997,3.1964,3.1964,3.1964,3.1998,3.2,3.2002,3.2003,3.1978,3.1976,3.1973,3.1923,0,0,3.1965,3.1964,0,0,0,0,0,0,0,0,3.2015,3.2012,3.1994,3.1995,3.1996,3.1986,3.1974,3.195,3.1998,3.1997,3.2002,3.2004,3.1978,3.1976,3.1968,3.1921,3.192,3.1965,3.1964,3.1962,3.1962,0,0,0,0,0,0,0,3.2017,3.2013,3.1974,3.1993,3.1995,3.2001,3.2,3.197,3.1978,3.1998,3.2,3.1998,3.1979,3.1971,3.1968,3.192,3.1965,3.1963,3.1961,3.196,3.1831,3.1829,0,0,0,0,0,0,3.2017,3.2014,3.1974,3.1973,3.201,3.1999,3.1998,3.1987,3.1978,3.1979,3.1997,3.2,3.1974,3.1971,3.1967,3.1907,3.1962,3.196,3.1959,3.1832,3.183,3.1828,0,0,0,0,0,0,3.2018,3.2013,3.1975,3.1994,3.199,3.1996,3.1984,3.1986,3.1978,3.1978,3.1979,3.1987,3.1976,3.1971,3.1934,3.1906,3.1959,3.1956,3.1835,3.1832,3.1829,3.1786,0,0,0,0,0,0,3.202,3.2014,3.1996,3.1994,3.1989,3.1944,3.1982,3.1984,3.1974,3.1978,3.1969,3.1969,3.1977,3.1938,3.1931,3.1904,3.1954,3.1837,3.1833,3.183,3.1789,3.1782,3.1775,0,0,0,0,0,3.2022,3.1982,3.1995,3.199,3.1967,3.1942,3.1939,3.195,3.1972,3.1953,3.1953,3.197,3.1911,3.1934,3.1927,3.1898,3.1839,3.1834,3.183,3.1793,3.1783,3.1775,0,0,0,0,0,0,3.1977,3.1982,3.1996,3.1955,3.1948,3.1948,3.1924,3.194,3.1924,3.1928,3.1941,3.1939,3.1899,3.1895,3.192,3.1849,3.1878,3.1872,3.1852,3.1843,3.1836,3.1836,3.1952,0,0,0,0,0,3.1964,3.1945,3.195,3.1913,3.1909,3.1918,3.1907,3.1917,3.1909,3.1905,3.1903,3.1893,3.1872,3.1858,3.1839,3.179,3.1788,3.1767,3.176,3.1754,3.1748,3.1721,3.1711,3.1814,3.1814,3.1814,0,0,3.1933,3.1934,3.1921,3.1904,3.19,3.1879,3.1915,3.189,3.1874,3.1901,3.1866,3.1864,3.1854,3.1811,3.1792,3.1806,3.172,3.1749,3.1744,3.1741,3.1716,3.1706,3.1697,3.1811,3.1812,3.1812,0,0,3.1867,3.1866,3.1836,3.1832,3.1827,3.1833,3.1826,3.1824,3.1824,3.1791,3.1811,3.179,3.1755,3.1746,3.1737,3.1671,3.1685,3.1664,3.1625,3.1599,3.1591,3.1583,3.1558,3.1549,3.1659,3.1659,3.1658,0,3.1829,3.18,3.1818,3.1793,3.1784,3.1812,3.178,3.1774,3.1762,3.1754,3.1772,3.1729,3.1723,3.1679,3.1663,3.1655,3.1646,3.1664,3.1591,3.1584,3.1577,3.1553,3.1544,3.1656,3.1656,3.1657,3.1657,0,3.1753,3.1733,3.1708,3.1699,3.1688,3.1659,3.1671,3.1658,3.1669,3.1673,3.1638,3.1634,3.1614,3.1605,3.1614,3.1561,3.157,3.159,3.1619,3.1565,3.1542,3.1533,3.1652,3.1653,3.1654,3.1655,0,0,3.1655,3.1658,3.1649,3.1645,3.1642,3.1625,3.1598,3.1582,3.157,3.1561,3.1536,3.1507,3.1526,3.1515,3.1525,3.1502,3.1448,3.1524,3.1524,3.1508,3.1387,3.1371,3.1361,3.1459,3.1457,3.1456,3.1388,0,3.1588,3.1544,3.156,3.1513,3.1494,3.1521,3.1497,3.1492,3.1495,3.1477,3.148,3.1459,3.1485,3.1479,3.1459,3.1459,3.1424,3.1465,3.1434,3.1432,3.1433,3.1349,3.1332,3.1267,3.1379,3.1378,3.1377,0,3.1503,3.1494,3.1447,3.1448,3.1441,3.1419,3.1406,3.139,3.1384,3.1388,3.1378,3.1393,3.1364,3.1397,3.1356,3.1384,3.1372,3.1371,3.1369,3.1364,3.1399,3.1339,3.1247,3.1236,3.1363,3.1364,3.1365,0,3.1435,3.141,3.1379,3.1375,3.1376,3.136,3.136,3.1356,3.1346,3.1334,3.1327,3.1311,3.1302,3.1288,3.1297,3.1321,3.1255,3.1288,3.1255,3.1254,3.1237,3.1237,3.1139,3.1234,3.1234,3.1234,3.1234,0,3.1357,3.1326,3.1348,3.1328,3.1294,3.1313,3.1278,3.128,3.1277,3.1257,3.1279,3.1259,3.1274,3.1255,3.1262,3.1226,3.1222,3.1223,3.1224,3.1219,3.1219,3.1209,3.1213,3.1232,3.1232,3.1233,3.1233,0,3.1272,3.1286,3.1253,3.1259,3.126,3.1234,3.1238,3.1218,3.1225,3.1199,3.1194,3.1203,3.1181,3.1191,3.1167,3.1172,3.1126,3.1134,3.1128,3.1129,3.1095,3.1097,3.0985,3.097,3.1077,3.1076,3.1075,0,3.122,3.1198,3.1202,3.1192,3.119,3.1173,3.1163,3.1181,3.117,3.1163,3.1144,3.1126,3.1111,3.1075,3.1078,3.106,3.1067,3.1029,3.1064,3.106,3.1064,3.1064,3.1061,3.1021,3.102,3.1019,3.1018,0,3.1126,3.1135,3.1122,3.1112,3.1101,3.1092,3.1086,3.1075,3.1093,3.1079,3.106,3.1049,3.1027,3.1007,3.0992,3.0989,3.1005,3.1008,3.0999,3.0991,3.0988,3.0987,3.1106,3.1009,3.101,3.1011,3.1011,3.1011,3.1055,3.1036,3.1037,3.1022,3.102,3.1014,3.0996,3.1002,3.0987,3.0972,3.0983,3.0959,3.0954,3.0936,3.0931,3.0911,3.0925,3.0912,3.0909,3.0905,3.0899,3.0994,3.0908,3.0908,3.0909,3.0909,3.0909,0,3.096,3.0963,3.0949,3.0941,3.0929,3.095,3.0945,3.0932,3.0912,3.0907,3.0894,3.0871,3.0852,3.0855,3.0838,3.0821,3.0828,3.0815,3.0815,3.0814,3.0888,3.0897,3.081,3.081,3.081,3.081,3.081,3.081,3.091,3.0879,3.0888,3.0856,3.0858,3.0837,3.0832,3.0826,3.0823,3.0797,3.0783,3.0786,3.0784,3.0767,3.0751,3.0752,3.0743,3.0727,3.0731,3.0799,3.0809,3.0818,3.0826,3.0726,3.0726,3.0658,3.0657,3.0657]}]]